Location: Newark
(46.7000°N, 60.6000°W)
Time: 04:10:43
(UTC+00:00)

A-11 Canister half - Pass Details

Date: 04 November 2020
Orbit: 1525 x 1683 km, 47.3° (Epoch: 23 November)

Event Time Altitude Azimuth Distance (km) Brightness Sun altitude
Rises 17:41:38 0° 247° (WSW) 4,823 12.4 22.4°
Reaches altitude 10° 17:44:47 10° 247° (WSW) 3,817 12.1 22.1°
Maximum altitude 17:54:27 81° 162° (SSE) 1,585 9.6 21.3°
Drops below altitude 10° 18:03:51 10° 77° (ENE) 3,714 10.7 20.3°
Sets 18:06:52 0° 76° (ENE) 4,687 11.1 20.0°
